CW6538 Cattolica IT current weather conditions

sailwx.info

Wind from 033 at 9 knots gusting 13

Air temperature 28.3° C
Dewpoint 13.0° C

Last reported at 2016-Jun-29 09:44 UTC.
Time now 2016-Jun-29 11:04 UTC

Location: N 43°58' E 012°44'.
View on Google Maps.

See reports from other nearby stations

  
Tides and Currents Weather Stations Pressure Air Temp Water Temp Dewpoint Dewpoint Depression Visibility Wind Speed Wind Dir Waves Ship Positions
date/time (UTC)wind fromknots sea level pressurealtimeterstation pressurevisibilityair tempwater tempwave heightnotes
2016-Jun-29 09:44 033 9 gusting 13 28.3
2016-Jun-29 09:39 050 8 gusting 12 28.3
2016-Jun-29 09:34 040 7 gusting 12 28.3
2016-Jun-29 09:29 024 7 gusting 12 27.8
2016-Jun-29 09:24 077 8 gusting 12 27.8
2016-Jun-29 09:19 057 6 gusting 12 27.8
2016-Jun-29 09:13 057 8 gusting 12 27.8
2016-Jun-29 09:08 062 7 gusting 12 28.3
2016-Jun-29 09:04 070 8 gusting 12 28.3
2016-Jun-29 08:59 072 6 gusting 11 28.3
2016-Jun-29 08:54 051 6 gusting 10 28.3
2016-Jun-29 08:49 034 6 gusting 9 28.3
2016-Jun-29 08:44 108 6 gusting 9 28.3
2016-Jun-29 08:39 049 6 gusting 9 28.3
2016-Jun-29 08:34 067 6 gusting 9 28.3
2016-Jun-29 08:29 059 4 gusting 9 27.8
2016-Jun-29 08:24 037 6 gusting 9 27.8
2016-Jun-29 08:19 036 6 gusting 7 27.8
2016-Jun-29 08:14 110 4 gusting 7 27.8
2016-Jun-29 08:09 056 4 gusting 7 27.8
2016-Jun-29 08:04 061 2 gusting 6 27.2
2016-Jun-29 07:59 153 2 gusting 6 27.2
2016-Jun-29 07:54 116 1 gusting 6 27.2
2016-Jun-29 07:49 194 0 gusting 6 27.2
2016-Jun-29 07:44 111 2 gusting 6 26.7
2016-Jun-29 07:39 163 0 gusting 6 26.7
2016-Jun-29 07:34 159 4 gusting 6 26.7
2016-Jun-29 07:29 128 3 gusting 6 26.1
2016-Jun-29 07:24 116 4 gusting 6 26.1
2016-Jun-29 07:19 138 2 gusting 5 25.6
2016-Jun-29 07:14 173 25.6
2016-Jun-29 07:09 209 1 gusting 6 25.0
2016-Jun-29 07:04 155 1 gusting 5 25.0
2016-Jun-29 06:59 201 2 gusting 6 24.4
2016-Jun-29 06:54 225 1 gusting 6 24.4
2016-Jun-29 06:48 205 1 gusting 4 23.9
2016-Jun-29 06:44 167 23.3
2016-Jun-29 06:39 170 0 gusting 6 23.3
2016-Jun-29 06:34 171 4 gusting 6 22.8
2016-Jun-29 06:29 168 4 gusting 5 22.8
2016-Jun-29 06:24 155 2 gusting 5 22.2
2016-Jun-29 06:19 153 3 gusting 5 22.2
2016-Jun-29 06:14 178 1 gusting 3 21.7
2016-Jun-29 06:04 192 1 gusting 4 21.1
2016-Jun-29 05:59 165 1 gusting 5 21.1
2016-Jun-29 05:54 176 3 gusting 5 20.6
2016-Jun-29 05:49 182 4 gusting 5 20.6
2016-Jun-29 05:44 173 4 gusting 6 20.0
2016-Jun-29 05:39 169 2 gusting 5 20.0
2016-Jun-29 05:34 159 3 gusting 5 19.4
2016-Jun-29 05:29 172 4 gusting 5 18.9
2016-Jun-29 05:24 176 2 gusting 5 18.9
2016-Jun-29 05:18 172 2 gusting 5 18.9
2016-Jun-29 05:13 171 3 gusting 5 18.3
2016-Jun-29 05:08 167 3 gusting 5 18.3
2016-Jun-29 05:04 163 3 gusting 5 18.3
2016-Jun-29 04:59 163 3 gusting 5 17.8
2016-Jun-29 04:54 165 3 gusting 5 17.8
2016-Jun-29 04:49 178 2 gusting 5 17.2
2016-Jun-29 04:44 180 3 gusting 6 17.2
2016-Jun-29 04:39 167 3 gusting 6 17.2
2016-Jun-29 04:34 166 4 gusting 6 17.2
2016-Jun-29 04:29 171 3 gusting 5 16.7
2016-Jun-29 04:24 167 3 gusting 6 16.7
2016-Jun-29 04:19 174 3 gusting 6 16.7
2016-Jun-29 04:14 171 4 gusting 6 16.7
2016-Jun-29 04:09 179 4 gusting 5 16.7
2016-Jun-29 04:04 163 4 gusting 6 16.7
2016-Jun-29 03:59 172 4 gusting 6 16.7
2016-Jun-29 03:53 186 3 gusting 6 16.7
2016-Jun-29 03:48 175 4 gusting 6 16.7
2016-Jun-29 03:44 178 3 gusting 5 16.7
2016-Jun-29 03:39 173 3 gusting 5 16.7
2016-Jun-29 03:34 186 3 gusting 6 16.7
2016-Jun-29 03:29 184 5 gusting 6 16.7
2016-Jun-29 03:24 194 4 gusting 6 16.7
2016-Jun-29 03:19 192 4 gusting 5 16.7
2016-Jun-29 03:09 174 3 gusting 6 16.7
2016-Jun-29 03:04 173 4 gusting 6 16.7
2016-Jun-29 02:59 165 4 gusting 6 16.7
2016-Jun-29 02:54 194 4 gusting 6 16.7
2016-Jun-29 02:49 171 3 gusting 5 16.7
2016-Jun-29 02:44 184 3 gusting 5 17.2
2016-Jun-29 02:38 179 3 gusting 6 17.2
2016-Jun-29 02:34 175 4 gusting 6 17.2
2016-Jun-29 02:28 173 4 gusting 5 17.2
2016-Jun-29 02:23 181 4 gusting 5 17.2
2016-Jun-29 02:18 175 3 gusting 6 17.2
2016-Jun-29 02:13 166 4 gusting 6 17.2
2016-Jun-29 02:08 172 4 gusting 6 17.2
2016-Jun-29 02:04 168 4 gusting 6 17.2
2016-Jun-29 01:59 180 3 gusting 6 17.2
2016-Jun-29 01:54 180 4 gusting 6 17.2
2016-Jun-29 01:49 163 4 gusting 6 17.2
2016-Jun-29 01:44 157 4 gusting 6 17.2
2016-Jun-29 01:39 170 2 gusting 4 17.8
2016-Jun-29 01:33 169 3 gusting 5 17.8
2016-Jun-29 01:28 178 3 gusting 5 17.8
2016-Jun-29 01:18 169 4 gusting 5 17.8
2016-Jun-29 01:14 171 4 gusting 5 17.8
2016-Jun-29 01:09 188 3 gusting 5 17.8
2016-Jun-29 01:03 171 4 gusting 5 17.8
2016-Jun-29 00:53 192 3 gusting 5 17.8
2016-Jun-29 00:49 193 3 gusting 5 17.8
2016-Jun-29 00:38 173 4 gusting 6 17.8
2016-Jun-29 00:34 167 4 gusting 6 18.3
2016-Jun-29 00:28 168 4 gusting 5 18.3
2016-Jun-29 00:23 175 3 gusting 5 18.3
2016-Jun-29 00:18 173 4 gusting 5 18.3
2016-Jun-29 00:13 150 3 gusting 5 18.3
2016-Jun-29 00:09 174 4 gusting 6 18.3
2016-Jun-29 00:03 181 4 gusting 6 18.3
2016-Jun-28 23:59 171 3 gusting 6 18.3
2016-Jun-28 23:54 162 4 gusting 6 18.3
2016-Jun-28 23:49 167 4 gusting 6 18.3
2016-Jun-28 23:44 121 3 gusting 6 18.3
2016-Jun-28 23:39 150 3 gusting 6 18.3
2016-Jun-28 23:33 161 3 gusting 6 18.3
2016-Jun-28 23:28 173 4 gusting 6 18.3
2016-Jun-28 23:23 171 4 gusting 6 18.9
2016-Jun-28 23:19 162 3 gusting 5 18.9
2016-Jun-28 23:13 169 3 gusting 6 18.9
2016-Jun-28 23:09 182 3 gusting 6 18.9
2016-Jun-28 23:03 165 4 gusting 5 18.9
2016-Jun-28 22:59 147 4 gusting 6 18.9
2016-Jun-28 22:54 181 4 gusting 6 18.9
2016-Jun-28 22:49 168 3 gusting 6 18.9
2016-Jun-28 22:44 171 3 gusting 6 18.9
2016-Jun-28 22:39 184 4 gusting 5 18.9
2016-Jun-28 22:33 178 4 gusting 5 18.9
2016-Jun-28 22:28 186 3 gusting 5 19.4
2016-Jun-28 22:23 191 3 gusting 5 19.4
2016-Jun-28 22:19 200 2 gusting 5 19.4
2016-Jun-28 22:14 185 3 gusting 5 19.4
2016-Jun-28 22:09 173 3 gusting 5 19.4
2016-Jun-28 22:04 160 3 gusting 5 19.4
2016-Jun-28 21:59 176 2 gusting 5 20.0
2016-Jun-28 21:53 184 3 gusting 5 20.0
2016-Jun-28 21:49 189 4 gusting 5 20.0
2016-Jun-28 21:44 178 2 gusting 4 20.0
2016-Jun-28 21:39 134 2 gusting 5 20.0
2016-Jun-28 21:34 153 2 gusting 5 20.0
2016-Jun-28 21:29 156 1 gusting 5 20.0
2016-Jun-28 21:23 147 3 gusting 5 20.6
2016-Jun-28 21:19 163 3 gusting 5 20.6
2016-Jun-28 21:13 153 3 gusting 6 20.6
2016-Jun-28 21:08 181 4 gusting 5 20.6
2016-Jun-28 21:04 165 4 gusting 5 20.6
2016-Jun-28 20:59 149 2 gusting 5 20.6
2016-Jun-28 20:54 174 2 gusting 4 21.1
2016-Jun-28 20:49 160 2 gusting 4 21.1
2016-Jun-28 20:39 134 2 gusting 5 21.1
2016-Jun-28 20:34 152 2 gusting 4 21.1
2016-Jun-28 20:29 163 0 gusting 5 21.7
2016-Jun-28 20:23 160 3 gusting 5 21.7
2016-Jun-28 20:19 173 3 gusting 4 22.2
2016-Jun-28 20:14 175 2 gusting 5 22.2
2016-Jun-28 20:09 161 3 gusting 5 22.2
2016-Jun-28 20:04 169 2 gusting 4 22.8
2016-Jun-28 19:58 164 1 gusting 4 22.8
2016-Jun-28 19:53 165 1 gusting 4 22.8
2016-Jun-28 19:49 169 1 gusting 4 23.3
2016-Jun-28 19:44 156 2 gusting 4 23.3
2016-Jun-28 19:34 171 2 gusting 4 23.3
2016-Jun-28 19:28 171 1 gusting 4 23.9
2016-Jun-28 19:24 130 2 gusting 4 23.9
2016-Jun-28 19:19 140 2 gusting 4 24.4
2016-Jun-28 19:14 142 3 gusting 4 24.4
2016-Jun-28 19:08 175 3 gusting 4 25.0
2016-Jun-28 19:04 172 3 gusting 4 25.0
2016-Jun-28 18:59 172 2 gusting 4 25.6
2016-Jun-28 18:54 172 25.6
2016-Jun-28 18:49 172 26.1
2016-Jun-28 18:39 173 2 gusting 4 26.1
2016-Jun-28 18:34 167 2 gusting 4 26.1
2016-Jun-28 18:29 167 2 gusting 4 26.1
2016-Jun-28 18:23 115 26.7
2016-Jun-28 18:14 105 1 gusting 4 26.7
2016-Jun-28 18:09 138 1 gusting 6 26.7
2016-Jun-28 17:59 124 26.7
2016-Jun-28 17:54 158 2 gusting 6 26.7
2016-Jun-28 17:49 121 3 gusting 6 26.7
2016-Jun-28 17:39 155 2 gusting 6 26.7
2016-Jun-28 17:34 182 3 gusting 6 26.7
2016-Jun-28 17:29 121 2 gusting 6 27.2
2016-Jun-28 17:23 127 4 gusting 6 26.7
2016-Jun-28 17:19 093 5 gusting 6 27.2
2016-Jun-28 17:14 120 2 gusting 6 27.2
2016-Jun-28 17:09 067 4 gusting 6 27.2
2016-Jun-28 17:04 075 4 gusting 6 27.2
2016-Jun-28 16:59 071 2 gusting 6 27.2
2016-Jun-28 16:49 140 2 gusting 10 27.2
2016-Jun-28 16:44 128 4 gusting 10 27.2
2016-Jun-28 16:38 105 4 gusting 7 27.2
2016-Jun-28 16:34 105 4 gusting 7 27.2
2016-Jun-28 16:29 113 4 gusting 8 27.2
2016-Jun-28 16:24 091 5 gusting 8 27.2
2016-Jun-28 16:19 081 5 gusting 6 27.2
2016-Jun-28 16:14 117 4 gusting 7 27.2
2016-Jun-28 16:09 102 5 gusting 7 27.2
2016-Jun-28 16:04 118 6 gusting 7 27.2
2016-Jun-28 15:59 115 5 gusting 8 27.2
2016-Jun-28 15:54 087 5 gusting 8 27.8
2016-Jun-28 15:48 081 4 gusting 6 27.8
2016-Jun-28 15:44 111 4 gusting 8 27.8
2016-Jun-28 15:39 057 5 gusting 8 27.8
2016-Jun-28 15:34 078 5 gusting 8 27.8
2016-Jun-28 15:29 085 1 gusting 9 27.8
2016-Jun-28 15:24 043 5 gusting 9 28.3
2016-Jun-28 15:18 058 3 gusting 8 28.3
2016-Jun-28 15:14 069 6 gusting 11 27.2
2016-Jun-28 15:08 076 7 gusting 11 27.8
2016-Jun-28 15:04 085 6 gusting 9 27.2
2016-Jun-28 14:59 071 6 gusting 10 27.8
2016-Jun-28 14:54 046 5 gusting 10 27.8
2016-Jun-28 14:49 064 6 gusting 10 27.8
2016-Jun-28 14:44 082 6 gusting 10 27.8
2016-Jun-28 14:34 013 4 gusting 9 28.9
2016-Jun-28 14:29 044 6 gusting 9 28.3
2016-Jun-28 14:24 027 6 gusting 9 28.9
2016-Jun-28 14:14 044 5 gusting 10 28.3
2016-Jun-28 14:09 071 5 gusting 10 28.3
2016-Jun-28 14:03 075 6 gusting 10 28.9
2016-Jun-28 13:59 034 6 gusting 8 28.3
2016-Jun-28 13:54 067 6 gusting 11 28.3
2016-Jun-28 13:49 027 6 gusting 11 28.3
2016-Jun-28 13:44 063 6 gusting 11 27.8
2016-Jun-28 13:34 051 6 gusting 9 28.3
2016-Jun-28 13:29 053 2 gusting 9 28.9
2016-Jun-28 13:24 071 6 gusting 9 28.9
2016-Jun-28 13:19 035 6 gusting 11 28.3
2016-Jun-28 13:14 047 6 gusting 11 28.3
2016-Jun-28 13:09 049 6 gusting 9 28.3
2016-Jun-28 13:04 040 5 gusting 9 28.3
2016-Jun-28 12:59 080 5 gusting 9 28.3
2016-Jun-28 12:54 074 4 gusting 9 28.3
2016-Jun-28 12:49 078 6 gusting 9 28.9
2016-Jun-28 12:44 057 5 gusting 9 28.3
2016-Jun-28 12:34 067 6 gusting 10 28.3
2016-Jun-28 12:29 035 7 gusting 10 27.8
2016-Jun-28 12:24 026 5 gusting 9 28.3
2016-Jun-28 12:19 044 6 gusting 9 28.3
2016-Jun-28 12:14 071 6 gusting 8 28.3
2016-Jun-28 12:08 108 4 gusting 8 28.9
2016-Jun-28 12:04 040 4 gusting 9 28.9
2016-Jun-28 11:59 038 6 gusting 8 28.3
2016-Jun-28 11:54 062 5 gusting 9 28.3
2016-Jun-28 11:49 010 4 gusting 9 28.9
2016-Jun-28 11:44 044 4 gusting 9 28.3
2016-Jun-28 11:39 111 5 gusting 8 28.9
2016-Jun-28 11:34 063 5 gusting 8 28.9
2016-Jun-28 11:29 040 6 gusting 8 28.9
2016-Jun-28 11:24 030 4 gusting 7 28.9
2016-Jun-28 11:19 012 4 gusting 10 28.9
2016-Jun-28 11:13 026 6 gusting 10 27.8
2016-Jun-28 11:08 054 5 gusting 9 28.3
2016-Jun-28 11:04 022 6 gusting 9 28.3
2016-Jun-28 10:59 086 6 gusting 10 28.9
2016-Jun-28 10:54 034 6 gusting 9 28.9
2016-Jun-28 10:49 066 4 gusting 8 28.9
2016-Jun-28 10:44 020 6 gusting 8 28.3
2016-Jun-28 10:39 026 4 gusting 8 28.3
2016-Jun-28 10:34 019 6 gusting 8 28.3
2016-Jun-28 10:29 009 2 gusting 9 28.3
2016-Jun-28 10:24 024 6 gusting 9 28.3
2016-Jun-28 10:19 061 6 gusting 9 27.8
2016-Jun-28 10:14 040 3 gusting 7 27.8
2016-Jun-28 10:09 122 5 gusting 9 27.8
2016-Jun-28 10:04 005 6 gusting 9 28.3
2016-Jun-28 09:59 064 6 gusting 9 27.8
2016-Jun-28 09:54 055 4 gusting 7 27.2
2016-Jun-28 09:49 044 4 gusting 7 27.8
2016-Jun-28 09:44 044 4 gusting 8 27.8
2016-Jun-28 09:39 040 5 gusting 7 27.8
2016-Jun-28 09:34 057 4 gusting 8 27.8
2016-Jun-28 09:29 053 5 gusting 8 27.8
2016-Jun-28 09:24 045 6 gusting 8 27.2
2016-Jun-28 09:19 057 4 gusting 9 27.2
2016-Jun-28 09:14 063 5 gusting 9 27.2
2016-Jun-28 09:09 048 5 gusting 7 27.2
2016-Jun-28 09:04 035 2 gusting 9 27.2
2016-Jun-28 08:59 019 6 gusting 9 27.2
2016-Jun-28 08:54 018 5 gusting 9 27.2
2016-Jun-28 08:49 005 3 gusting 10 27.2
2016-Jun-28 08:44 346 6 gusting 10 27.2
2016-Jun-28 08:39 024 6 gusting 8 27.2
2016-Jun-28 08:34 014 5 gusting 8 27.2
2016-Jun-28 08:29 039 4 gusting 8 26.7
2016-Jun-28 08:24 105 5 gusting 10 26.7
2016-Jun-28 08:19 005 4 gusting 10 26.7
2016-Jun-28 08:14 028 3 gusting 8 26.7
2016-Jun-28 08:09 030 6 gusting 8 26.7
2016-Jun-28 08:04 005 5 gusting 7 26.7
2016-Jun-28 07:59 039 5 gusting 7 26.7
2016-Jun-28 07:54 024 3 gusting 7 26.7
2016-Jun-28 07:49 081 5 gusting 9 26.7
2016-Jun-28 07:43 047 6 gusting 9 26.1
2016-Jun-28 07:39 037 4 gusting 10 26.7
2016-Jun-28 07:34 055 6 gusting 10 26.7
2016-Jun-28 07:29 042 5 gusting 8 26.7
2016-Jun-28 07:24 071 4 gusting 8 26.7
2016-Jun-28 07:19 005 4 gusting 8 26.1
2016-Jun-28 07:14 067 3 gusting 6 26.1
2016-Jun-28 07:09 049 5 gusting 9 26.1
2016-Jun-28 07:04 054 5 gusting 9 26.1
2016-Jun-28 06:59 109 3 gusting 7 26.1
2016-Jun-28 06:53 032 2 gusting 8 26.1
2016-Jun-28 06:49 059 6 gusting 8 25.6
2016-Jun-28 06:44 088 4 gusting 7 25.6
2016-Jun-28 06:39 054 3 gusting 9 25.6
2016-Jun-28 06:34 061 5 gusting 9 25.6
2016-Jun-28 06:28 044 4 gusting 8 25.6
2016-Jun-28 06:24 129 6 gusting 10 25.6
2016-Jun-28 06:18 051 7 gusting 10 25.0
2016-Jun-28 06:14 041 5 gusting 7 25.0
2016-Jun-28 06:09 046 4 gusting 9 25.0
2016-Jun-28 06:04 074 6 gusting 9 25.0
2016-Jun-28 05:59 031 4 gusting 9 25.0
2016-Jun-28 05:54 067 4 gusting 9 25.0
2016-Jun-28 05:49 095 3 gusting 8 24.4
2016-Jun-28 05:44 104 5 gusting 10 24.4
2016-Jun-28 05:39 047 4 gusting 9 24.4
2016-Jun-28 05:34 111 5 gusting 9 24.4
2016-Jun-28 05:29 072 2 gusting 7 24.4
2016-Jun-28 05:24 105 5 gusting 7 23.9
2016-Jun-28 05:19 109 4 gusting 7 23.9
2016-Jun-28 05:14 085 3 gusting 6 23.9
2016-Jun-28 05:08 101 3 gusting 6 23.9
2016-Jun-28 05:04 109 3 gusting 9 23.9
2016-Jun-28 04:59 057 5 gusting 11 23.9
2016-Jun-28 04:53 091 4 gusting 11 23.9
2016-Jun-28 04:49 084 4 gusting 12 23.9
2016-Jun-28 04:43 109 6 gusting 10 23.3
2016-Jun-28 04:39 102 5 gusting 10 23.3
2016-Jun-28 04:34 106 6 gusting 10 23.3
2016-Jun-28 04:28 072 6 gusting 11 23.3
2016-Jun-28 04:24 119 6 gusting 12 23.3
2016-Jun-28 04:19 088 6 gusting 12 23.3
2016-Jun-28 04:14 094 4 gusting 10 23.3
2016-Jun-28 04:09 099 6 gusting 10 23.3
2016-Jun-28 04:03 071 5 gusting 11 23.3
2016-Jun-28 03:59 101 6 gusting 11 22.8
2016-Jun-28 03:54 147 5 gusting 10 22.8
2016-Jun-28 03:48 115 5 gusting 10 22.8
2016-Jun-28 03:44 084 5 gusting 13 22.8
2016-Jun-28 03:38 059 6 gusting 13 22.8
2016-Jun-28 03:33 100 5 gusting 10 22.8
2016-Jun-28 03:29 121 4 gusting 9 22.8
2016-Jun-28 03:24 095 4 gusting 8 22.8
2016-Jun-28 03:18 086 5 gusting 11 22.8
2016-Jun-28 03:14 064 5 gusting 11 22.8
2016-Jun-28 03:09 085 5 gusting 10 22.8
2016-Jun-28 03:04 078 3 gusting 7 22.8
2016-Jun-28 02:59 068 3 gusting 8 22.8
2016-Jun-28 02:54 074 5 gusting 8 22.8
2016-Jun-28 02:48 060 2 gusting 6 22.8
2016-Jun-28 02:43 119 2 gusting 8 22.8
2016-Jun-28 02:38 103 4 gusting 8 22.8
2016-Jun-28 02:33 080 2 gusting 8 23.3
2016-Jun-28 02:28 074 4 gusting 10 23.3
2016-Jun-28 02:23 028 6 gusting 10 23.3
2016-Jun-28 02:18 027 7 gusting 10 23.3
2016-Jun-28 02:14 045 6 gusting 11 23.3
2016-Jun-28 02:09 049 6 gusting 11 23.3
2016-Jun-28 02:04 022 6 gusting 11 23.3
2016-Jun-28 01:59 025 5 gusting 11 23.3
2016-Jun-28 01:54 038 6 gusting 12 23.3
2016-Jun-28 01:48 022 6 gusting 12 23.3
2016-Jun-28 01:43 039 5 gusting 11 23.3
2016-Jun-28 01:38 064 6 gusting 11 23.3
2016-Jun-28 01:33 059 6 gusting 10 23.3
2016-Jun-28 01:28 038 5 gusting 11 23.3
2016-Jun-28 01:23 032 5 gusting 11 23.3
2016-Jun-28 01:18 075 6 gusting 9 23.9
2016-Jun-28 01:13 065 3 gusting 10 23.9
2016-Jun-28 01:09 060 7 gusting 10 23.9
2016-Jun-28 01:03 099 6 gusting 10 23.9
2016-Jun-28 00:58 019 6 gusting 10 23.9
2016-Jun-28 00:53 079 4 gusting 11 23.9
2016-Jun-28 00:49 053 6 gusting 10 23.9
2016-Jun-28 00:44 100 4 gusting 10 23.9
2016-Jun-28 00:38 078 2 gusting 10 23.9
2016-Jun-28 00:33 093 5 gusting 10 23.9
2016-Jun-28 00:28 087 5 gusting 9 23.9
2016-Jun-28 00:23 057 6 gusting 9 23.9
2016-Jun-28 00:18 090 5 gusting 9 23.9
2016-Jun-28 00:14 065 4 gusting 9 23.9
2016-Jun-28 00:08 087 3 gusting 10 23.9
2016-Jun-28 00:03 028 5 gusting 8 23.9
2016-Jun-27 23:58 082 5 gusting 8 23.9
2016-Jun-27 23:53 082 5 gusting 10 23.9
2016-Jun-27 23:48 098 6 gusting 11 23.9
2016-Jun-27 23:43 094 5 gusting 10 24.4
2016-Jun-27 23:38 107 7 gusting 10 24.4
2016-Jun-27 23:34 107 3 gusting 13 24.4
2016-Jun-27 23:28 031 6 gusting 11 24.4
2016-Jun-27 23:19 066 6 gusting 12 24.4
2016-Jun-27 23:14 096 4 gusting 11 24.4
2016-Jun-27 23:09 070 6 gusting 12 24.4
2016-Jun-27 23:04 049 7 gusting 12 24.4
2016-Jun-27 22:59 077 6 gusting 11 24.4
2016-Jun-27 22:54 060 6 gusting 12 24.4
2016-Jun-27 22:49 076 6 gusting 12 24.4
2016-Jun-27 22:44 292 5 gusting 13 23.9
2016-Jun-27 22:39 061 8 gusting 13 23.9
2016-Jun-27 22:34 021 6 gusting 12 24.4
2016-Jun-27 22:29 026 7 gusting 12 24.4
2016-Jun-27 22:23 059 6 gusting 12 24.4
2016-Jun-27 22:18 019 5 gusting 12 24.4
2016-Jun-27 22:13 031 7 gusting 12 24.4
2016-Jun-27 22:09 055 8 gusting 13 24.4
2016-Jun-27 22:04 040 8 gusting 13 23.9
2016-Jun-27 21:58 045 7 gusting 13 24.4
2016-Jun-27 21:54 026 6 gusting 13 24.4
2016-Jun-27 21:49 351 5 gusting 12 24.4
2016-Jun-27 21:43 333 4 gusting 7 24.4
2016-Jun-27 21:39 355 3 gusting 9 24.4
2016-Jun-27 21:34 329 3 gusting 10 24.4
2016-Jun-27 21:28 302 6 gusting 10 24.4
2016-Jun-27 21:24 005 3 gusting 9 24.4
2016-Jun-27 21:19 324 4 gusting 11 24.4
2016-Jun-27 21:14 325 6 gusting 11 24.4
2016-Jun-27 21:08 323 5 gusting 10 24.4
2016-Jun-27 21:04 323 6 gusting 10 24.4
2016-Jun-27 20:59 331 6 gusting 9 24.4
2016-Jun-27 20:49 279 5 gusting 10 24.4
2016-Jun-27 20:43 314 2 gusting 6 24.4
2016-Jun-27 20:39 296 2 gusting 6 24.4
2016-Jun-27 20:34 285 2 gusting 6 24.4
2016-Jun-27 20:29 272 4 gusting 9 24.4
2016-Jun-27 20:23 309 4 gusting 9 24.4
2016-Jun-27 20:14 285 5 gusting 8 24.4
2016-Jun-27 20:08 318 4 gusting 9 25.0
2016-Jun-27 20:03 288 5 gusting 9 24.4
2016-Jun-27 19:59 298 5 gusting 9 24.4
2016-Jun-27 19:54 315 6 gusting 9 25.0
2016-Jun-27 19:48 293 5 gusting 7 25.0
2016-Jun-27 19:44 314 1 gusting 8 25.0
2016-Jun-27 19:39 329 6 gusting 8 25.0
2016-Jun-27 19:34 323 5 gusting 8 25.0
2016-Jun-27 19:29 340 3 gusting 9 25.0
2016-Jun-27 19:24 005 5 gusting 9 25.0
2016-Jun-27 19:14 319 2 gusting 6 25.0
2016-Jun-27 19:09 336 3 gusting 7 25.0
2016-Jun-27 19:04 295 3 gusting 8 25.0
2016-Jun-27 18:59 330 5 gusting 8 25.0
2016-Jun-27 18:49 324 4 gusting 6 25.0
2016-Jun-27 18:44 336 4 gusting 6 25.0
2016-Jun-27 18:38 333 3 gusting 5 25.6
2016-Jun-27 18:29 303 3 gusting 6 25.6
2016-Jun-27 18:24 286 3 gusting 5 25.6
2016-Jun-27 18:19 313 3 gusting 5 25.6
2016-Jun-27 18:14 319 2 gusting 5 25.6
2016-Jun-27 18:08 308 1 gusting 4 25.6
2016-Jun-27 18:04 322 1 gusting 5 25.6
2016-Jun-27 17:58 311 2 gusting 5 25.6
2016-Jun-27 17:53 329 3 gusting 5 25.6
2016-Jun-27 17:49 272 4 gusting 6 26.1
2016-Jun-27 17:44 351 3 gusting 6 26.1
2016-Jun-27 17:39 329 4 gusting 6 26.1
2016-Jun-27 17:34 341 3 gusting 6 26.1
2016-Jun-27 17:29 304 3 gusting 6 26.1
2016-Jun-27 17:24 330 3 gusting 5 26.1
2016-Jun-27 17:19 009 2 gusting 6 26.1
2016-Jun-27 17:14 005 4 gusting 6 26.1
2016-Jun-27 17:09 338 2 gusting 6 26.1
2016-Jun-27 17:04 005 4 gusting 6 26.1
2016-Jun-27 16:59 015 4 gusting 6 26.7
2016-Jun-27 16:54 360 3 gusting 7 26.7
2016-Jun-27 16:49 019 4 gusting 8 26.1
2016-Jun-27 16:44 057 5 gusting 11 26.7
2016-Jun-27 16:39 018 5 gusting 11 26.7
2016-Jun-27 16:34 346 8 gusting 11 26.7
2016-Jun-27 16:24 019 6 gusting 15 27.2
2016-Jun-27 16:19 348 8 gusting 13 27.2
2016-Jun-27 16:14 360 9 gusting 15 27.2
2016-Jun-27 16:09 350 9 gusting 15 28.3
2016-Jun-27 16:03 046 5 gusting 7 28.9
2016-Jun-27 15:59 071 5 gusting 6 28.9
2016-Jun-27 15:54 005 3 gusting 6 28.9
2016-Jun-27 15:49 019 2 gusting 6 28.9
2016-Jun-27 15:44 038 5 gusting 7 28.9
2016-Jun-27 15:39 014 2 gusting 7 28.3
2016-Jun-27 15:34 148 1 gusting 7 28.3
2016-Jun-27 15:29 112 3 gusting 8 28.9
2016-Jun-27 15:24 056 6 gusting 8 28.9
2016-Jun-27 15:19 028 4 gusting 10 28.3
2016-Jun-27 15:14 044 4 gusting 10 28.3
2016-Jun-27 15:09 042 5 gusting 8 28.3
2016-Jun-27 15:04 081 5 gusting 8 28.3
2016-Jun-27 14:59 092 4 gusting 7 28.3
2016-Jun-27 14:54 078 4 gusting 9 28.3
2016-Jun-27 14:48 101 5 gusting 11 28.9
2016-Jun-27 14:39 057 5 gusting 9 30.0
2016-Jun-27 14:34 026 6 gusting 10 29.4
2016-Jun-27 14:29 029 6 gusting 10 30.0
2016-Jun-27 14:24 018 6 gusting 11 29.4
2016-Jun-27 14:19 053 7 gusting 11 30.0
2016-Jun-27 14:14 086 7 gusting 12 30.0
2016-Jun-27 14:08 053 6 gusting 12 30.0
2016-Jun-27 14:04 028 6 gusting 12 30.0
2016-Jun-27 13:59 094 6 gusting 13 30.0
2016-Jun-27 13:54 071 5 gusting 13 30.6
2016-Jun-27 13:49 069 7 gusting 15 30.0
2016-Jun-27 13:43 050 8 gusting 15 30.6
2016-Jun-27 13:34 033 6 gusting 13 30.6
2016-Jun-27 13:29 005 7 gusting 13 30.6
2016-Jun-27 13:24 032 9 gusting 15 30.6
2016-Jun-27 13:19 347 7 gusting 15 30.6
2016-Jun-27 13:14 005 7 gusting 15 30.6
2016-Jun-27 13:08 355 10 gusting 15 31.1
2016-Jun-27 13:04 355 6 gusting 13 31.7
2016-Jun-27 12:59 344 6 gusting 13 31.7
2016-Jun-27 12:54 342 7 gusting 12 31.7
2016-Jun-27 12:49 348 8 gusting 15 31.7
2016-Jun-27 12:44 339 6 gusting 16 31.7
2016-Jun-27 12:39 360 7 gusting 16 31.7
2016-Jun-27 12:34 355 6 gusting 13 31.7
2016-Jun-27 12:29 360 6 gusting 13 31.7
2016-Jun-27 12:24 039 6 gusting 9 31.7
2016-Jun-27 12:18 005 4 gusting 9 31.7
2016-Jun-27 12:13 041 5 gusting 8 31.7
2016-Jun-27 12:08 039 5 gusting 9 31.7
2016-Jun-27 12:04 024 6 gusting 9 31.7
2016-Jun-27 11:59 047 4 gusting 8 31.7
2016-Jun-27 11:54 032 5 gusting 9 31.7
2016-Jun-27 11:49 005 6 gusting 9 31.1
2016-Jun-27 11:44 040 6 gusting 10 31.1
2016-Jun-27 11:38 044 7 gusting 13 31.1
2016-Jun-27 11:34 036 6 gusting 13 31.1
2016-Jun-27 11:29 360 7 gusting 12 31.1
2016-Jun-27 11:24 028 6 gusting 11 31.1
2016-Jun-27 11:19 005 7 gusting 10 30.6
2016-Jun-27 11:14 044 5 gusting 11 30.6
2016-Jun-27 11:09 034 8 gusting 11 30.6
2016-Jun-27 11:04 073 8 gusting 10 30.6